Location: Balmoral
(33.0667°S, 151.5833°E)
Time: 00:15:32
(UTC+00:00)

Cosmos 1934 Rocket - Pass Details

Date: 18 September 2020
Orbit: 937 x 1000 km, 83.0° (Epoch: 21 October)

Event Time Altitude Azimuth Distance (km) Brightness Sun altitude
Rises 18:42:13 0° 337° (NNW) 3,620 6.7 -14.5°
Reaches altitude 10° 18:44:48 10° 330° (NNW) 2,691 6.0 -13.9°
Maximum altitude 18:50:38 43° 260° (W) 1,338 4.3 -12.7°
Drops below altitude 10° 18:56:38 10° 189° (S) 2,763 6.4 -11.5°
Sets 18:59:20 0° 182° (S) 3,726 7.1 -10.9°
